EA4TN Weather Reports


Display with metric or nautical units.
time (UTC)temp
F
wind
direction
speed
MPH
gust
MPH
rain 1hr
in
rain 24hr
in
rain mn
in
humidity
%
barometer
mb
20260507232016 51 79 1.0 3.0 0.00 0.46 0.46 87 1013.1
20260507231017 51 79 2.0 4.0 0.00 0.46 0.46 87 1013.1
20260507230016 51 79 1.0 2.0 0.00 0.46 0.46 87 1013.1
20260507225016 51 81 2.0 4.0 0.00 0.46 0.46 87 1013.2
20260507224016 51 98 1.0 2.0 0.00 0.46 0.46 87 1013.1
20260507223016 51 98 1.0 2.0 0.00 0.46 0.46 87 1013.1
20260507222017 51 98 1.0 3.0 0.00 0.46 0.46 88 1013.1
20260507221016 51 105 0.0 2.0 0.00 0.46 0.46 87 1013.0
20260507220016 51 0.0 0.0 0.00 0.46 0.46 87 1013.1
20260507215016 51 0.0 1.0 0.00 0.46 0.46 87 1013.0
20260507214016 51 0.0 0.0 0.00 0.46 0.46 88 1012.9
20260507213016 51 0.0 0.0 0.00 0.46 0.46 87 1012.7
20260507212017 51 0.0 0.0 0.00 0.46 0.46 86 1012.7
20260507211017 52 0.0 0.0 0.00 0.46 0.46 84 1012.4
20260507210016 53 0.0 0.0 0.00 0.46 0.46 82 1012.3
20260507205017 53 0.0 1.0 0.00 0.46 0.46 79 1012.1
20260507204017 54 105 0.0 2.0 0.00 0.46 0.46 79 1011.8
20260507203016 54 105 1.0 3.0 0.00 0.46 0.46 78 1011.7
20260507202017 54 106 0.0 2.0 0.00 0.46 0.46 78 1011.6
20260507201017 55 93 2.0 6.0 0.00 0.46 0.46 77 1011.4
20260507200016 55 108 2.0 5.0 0.00 0.46 0.46 77 1011.3
20260507195016 56 79 2.0 4.0 0.00 0.46 0.46 76 1011.2
20260507194016 56 101 1.0 2.0 0.00 0.46 0.46 75 1011.0
20260507193017 56 105 0.0 4.0 0.00 0.46 0.46 75 1010.9
20260507192017 57 115 0.0 4.0 0.00 0.46 0.46 74 1010.8
20260507191017 57 50 1.0 3.0 0.00 0.46 0.46 74 1010.8
20260507190017 58 49 2.0 3.0 0.00 0.46 0.46 73 1010.5
20260507185017 58 49 2.0 4.0 0.00 0.46 0.46 72 1010.2
20260507184016 59 49 2.0 5.0 0.00 0.46 0.46 71 1010.2
20260507183037 59 52 4.0 6.0 0.00 0.46 0.46 70 1010.0
20260507182017 60 56 2.0 5.0 0.00 0.46 0.46 66 1010.1
20260507181037 60 62 2.0 5.0 0.00 0.46 0.46 68 1010.1
20260507180017 59 57 2.0 5.0 0.00 0.46 0.46 70 1009.9
20260507175017 59 45 2.0 5.0 0.00 0.46 0.46 71 1009.8
20260507174017 59 66 2.0 5.0 0.00 0.46 0.46 70 1009.9
20260507173017 59 66 3.0 6.0 0.00 0.46 0.46 70 1009.8
20260507172016 58 62 3.0 6.0 0.00 0.46 0.46 73 1009.8
20260507171037 58 59 3.0 7.0 0.00 0.46 0.46 76 1009.8
20260507170017 56 64 4.0 8.0 0.01 0.46 0.46 79 1009.7
20260507165017 55 58 5.0 9.0 0.02 0.46 0.46 81 1009.5
20260507164016 54 77 5.0 9.0 0.02 0.46 0.46 83 1009.5
20260507163016 52 69 3.0 6.0 0.03 0.46 0.46 86 1009.4
20260507162017 51 63 4.0 8.0 0.05 0.46 0.46 87 1009.2
20260507161017 52 65 5.0 8.0 0.05 0.46 0.46 86 1009.3
20260507160018 53 99 3.0 13.0 0.04 0.45 0.45 88 1009.8
20260507155017 53 113 7.0 11.0 0.03 0.44 0.44 89 1010.3
20260507154017 53 273 2.0 6.0 0.02 0.43 0.43 93 1010.5
20260507153017 53 272 3.0 7.0 0.02 0.43 0.43 93 1010.5
20260507152017 53 336 4.0 9.0 0.00 0.41 0.41 94 1010.2
20260507151017 53 357 5.0 10.0 0.00 0.41 0.41 93 1010.0
20260507150017 53 10 5.0 11.0 0.00 0.41 0.41 93 1010.2
20260507145037 53 23 6.0 13.0 0.00 0.41 0.41 92 1010.2
20260507144017 54 39 6.0 12.0 0.00 0.41 0.41 93 1010.0
20260507143017 55 35 7.0 14.0 0.01 0.41 0.41 94 1010.1
20260507142037 55 34 7.0 13.0 0.06 0.41 0.41 94 1009.9
20260507141017 54 45 5.0 10.0 0.08 0.41 0.41 94 1009.8
20260507140017 54 49 5.0 10.0 0.09 0.41 0.41 95 1009.8
20260507135017 53 62 5.0 13.0 0.13 0.41 0.41 95 1009.7
20260507134017 51 49 9.0 13.0 0.41 0.41 0.41 95 1009.7
20260507133017 49 30 4.0 15.0 0.40 0.40 0.40 93 1010.0
20260507132017 48 23 10.0 18.0 0.35 0.35 0.35 93 1009.7
20260507131017 49 21 6.0 11.0 0.33 0.33 0.33 92 1010.2
20260507130017 50 37 6.0 12.0 0.32 0.32 0.32 90 1009.9
20260507125037 55 358 6.0 17.0 0.28 0.28 0.28 77 1010.1
20260507124017 58 117 3.0 13.0 0.00 0.00 0.00 67 1009.6
20260507123037 58 102 7.0 14.0 0.00 0.00 0.00 67 1009.6
20260507122017 59 98 6.0 14.0 0.00 0.00 0.00 65 1010.0
20260507121017 59 64 5.0 10.0 0.00 0.00 0.00 65 1010.0
20260507120017 60 73 3.0 7.0 0.00 0.00 0.00 68 1009.9
20260507115017 60 117 2.0 9.0 0.00 0.00 0.00 68 1009.9
20260507114017 62 101 3.0 6.0 0.00 0.00 0.00 68 1010.3
20260507113037 63 46 2.0 4.0 0.00 0.00 0.00 64 1010.3
20260507112017 63 95 1.0 5.0 0.00 0.00 0.00 61 1010.4
20260507111017 64 32 1.0 5.0 0.00 0.00 0.00 61 1010.7
20260507110037 63 6 2.0 5.0 0.00 0.00 0.00 62 1010.8
20260507105017 63 41 3.0 6.0 0.00 0.00 0.00 62 1010.9
20260507104017 63 71 2.0 4.0 0.00 0.00 0.00 63 1011.0
20260507103017 62 112 1.0 4.0 0.00 0.00 0.00 63 1011.2
20260507102017 62 59 1.0 3.0 0.00 0.00 0.00 65 1011.3
20260507101015 61 55 2.0 6.0 0.00 0.00 0.00 66 1011.4
20260507100017 60 39 2.0 5.0 0.00 0.00 0.00 68 1011.3
20260507095015 60 54 3.0 6.0 0.00 0.00 0.00 68 1011.4
20260507094017 59 49 3.0 5.0 0.00 0.00 0.00 69 1011.4
20260507093015 59 45 2.0 6.0 0.00 0.00 0.00 69 1011.5
20260507092017 59 64 2.0 5.0 0.00 0.00 0.00 69 1011.5
20260507091017 58 17 2.0 6.0 0.00 0.00 0.00 71 1011.5
20260507090017 58 34 2.0 5.0 0.00 0.00 0.00 71 1011.6
20260507085017 57 49 2.0 7.0 0.00 0.00 0.00 73 1011.4
20260507084037 57 31 2.0 6.0 0.00 0.00 0.00 74 1011.4
20260507083017 56 35 2.0 6.0 0.00 0.00 0.00 75 1011.4
20260507082017 55 358 2.0 5.0 0.00 0.00 0.00 77 1011.5
20260507081017 54 343 1.0 4.0 0.00 0.00 0.00 80 1011.6
20260507080015 54 274 1.0 4.0 0.00 0.00 0.00 80 1011.5
20260507075016 54 67 3.0 10.0 0.00 0.00 0.00 80 1011.1
20260507074035 54 74 4.0 9.0 0.00 0.00 0.00 77 1011.3
20260507073015 53 52 4.0 7.0 0.00 0.00 0.00 77 1011.3
20260507072015 53 46 4.0 7.0 0.00 0.00 0.00 77 1011.3
20260507071035 53 41 3.0 6.0 0.00 0.00 0.00 77 1011.8
20260507070015 53 65 2.0 6.0 0.00 0.00 0.00 78 1011.8
20260507065015 53 45 4.0 6.0 0.00 0.00 0.00 77 1011.7
20260507064015 53 43 4.0 6.0 0.00 0.00 0.00 77 1011.6
20260507063015 52 49 4.0 7.0 0.00 0.00 0.00 77 1011.3
20260507062035 52 44 4.0 7.0 0.00 0.00 0.00 78 1011.2
20260507061035 52 40 4.0 8.0 0.00 0.00 0.00 78 1011.3
20260507060015 52 55 4.0 7.0 0.00 0.00 0.00 78 1011.2
20260507055015 52 45 4.0 8.0 0.00 0.00 0.00 78 1011.0
20260507054015 52 43 5.0 9.0 0.00 0.00 0.00 78 1011.0
20260507053015 52 41 4.0 7.0 0.00 0.00 0.00 77 1011.0
20260507052015 52 51 4.0 8.0 0.00 0.00 0.00 77 1011.0
20260507051035 52 48 3.0 6.0 0.00 0.00 0.00 77 1011.0
20260507050015 52 47 3.0 7.0 0.00 0.00 0.00 77 1011.0
20260507045035 52 49 4.0 6.0 0.00 0.00 0.00 76 1011.0
20260507044015 52 47 4.0 6.0 0.00 0.00 0.00 76 1010.8
20260507043035 52 40 3.0 7.0 0.00 0.00 0.00 76 1010.8
20260507042015 52 48 3.0 9.0 0.00 0.00 0.00 75 1010.7
20260507041055 52 42 4.0 8.0 0.00 0.00 0.00 75 1010.7
20260507040015 53 48 3.0 6.0 0.00 0.00 0.00 74 1010.9
20260507035015 53 41 2.0 4.0 0.00 0.00 0.00 74 1011.0
20260507034015 54 37 3.0 5.0 0.00 0.00 0.00 73 1010.8
20260507033035 54 64 1.0 3.0 0.00 0.00 0.00 73 1010.9
20260507032015 55 48 2.0 5.0 0.00 0.00 0.00 73 1010.9
20260507031015 55 68 2.0 4.0 0.00 0.00 0.00 73 1010.8
20260507030035 55 18 2.0 5.0 0.00 0.00 0.00 73 1010.7
20260507025015 55 22 2.0 5.0 0.00 0.00 0.00 73 1010.7
20260507024015 55 23 2.0 5.0 0.00 0.00 0.00 73 1010.8
20260507023015 55 40 2.0 3.0 0.00 0.00 0.00 73 1010.7
20260507022015 55 53 2.0 6.0 0.00 0.00 0.00 73 1010.7
20260507021015 55 33 3.0 5.0 0.00 0.00 0.00 72 1010.9
20260507020015 55 33 3.0 10.0 0.00 0.00 0.00 72 1010.8
20260507015015 54 49 3.0 5.0 0.00 0.00 0.00 68 1010.7
20260507014016 54 49 2.0 6.0 0.00 0.00 0.00 67 1010.8
20260507013015 55 44 1.0 3.0 0.00 0.00 0.00 66 1010.7
20260507012035 55 42 2.0 3.0 0.00 0.00 0.00 65 1010.9
20260507011016 55 67 2.0 3.0 0.00 0.00 0.00 65 1010.9
20260507010015 54 43 2.0 4.0 0.00 0.00 0.00 63 1010.8
20260507005015 54 38 2.0 5.0 0.00 0.00 0.00 61 1010.8
20260507004015 54 75 2.0 6.0 0.00 0.00 0.00 60 1010.9
20260507003015 54 49 3.0 6.0 0.00 0.00 0.00 61 1010.9
20260507002015 54 57 3.0 7.0 0.00 0.00 0.00 59 1010.9
20260507001015 54 64 3.0 9.0 0.00 0.00 0.00 58 1010.9
20260507000015 54 53 5.0 10.0 0.00 0.00 0.00 57 1011.0
20260506235037 55 82 5.0 10.0 0.00 0.00 0.00 55 1011.0
20260506234057 56 52 5.0 9.0 0.00 0.00 0.00 54 1010.7
20260506233017 56 64 4.0 8.0 0.00 0.00 0.00 53 1010.5